Regional Weather Roundup
Issued by NWS

Home | Current Version | Previous Version | Graphics & Text | Print | Product List | Glossary On
Versions: 1 2 3 4 5 6 7 8 9 10 11 12 13 14 15 16 17 18 19 20 21 22 23 24 25 26 27 28 29 30 31 32 33 34 35 36 37 38 39 40 41 42 43 44 45 46 47 48 49 50
000
ASUS43 KOAX 090502
RWRNE

WEATHER ROUNDUP FOR NEBRASKA
NATIONAL WEATHER SERVICE OMAHA NE
1100 PM CST MON FEB 08 2016

NOTES: SATELLITE DATA IS BEING USED TO AUGMENT CLOUD COVER ABOVE
       12000 FEET.
       "FAIR" INDICATES FEW OR NO CLOUDS BELOW 12,000 FEET WITH NO
       SIGNIFICANT WEATHER AND/OR OBSTRUCTIONS TO VISIBILITY.

  * THESE STATIONS DO NOT REPORT WEATHER SUCH AS RAIN...SNOW OR FOG.

NEZ001>004-019>022-054>056-090600-
NEBRASKA PANHANDLE

CITY           SKY/WX    TMP DP  RH WIND       PRES   REMARKS
SCOTTSBLUFF    CLEAR     30  26  85 NW7       30.26F WCI  23
ALLIANCE       CLOUDY    33  26  75 NW15      30.21F WCI  23
CHADRON        CLOUDY    36  28  73 W10       30.23F WCI  28
SIDNEY         CLEAR     32  26  78 W13       30.25S WCI  22
$$

NEZ057>060-069>072-079>082-090600-
SOUTHWEST NEBRASKA

CITY           SKY/WX    TMP DP  RH WIND       PRES   REMARKS
NORTH PLATTE   CLOUDY    30  20  66 NW8       30.21S WCI  22
IMPERIAL       PTCLDY    28  21  75 W7        30.24F WCI  21
MCCOOK         CLOUDY    32  22  66 W9        30.24S WCI  24
$$

NEZ005>010-023>029-035>040-094-090600-
NORTH CENTRAL NEBRASKA

CITY           SKY/WX    TMP DP  RH WIND       PRES   REMARKS
VALENTINE      CLOUDY    32  17  54 NW12      30.20S WCI  23
AINSWORTH      CLOUDY    31  16  52 NW13      30.18R WCI  22
BROKEN BOW     MOCLDY    27  15  61 NW15      30.17S WCI  15
ORD            CLEAR     28  17  63 NW13      30.15F WCI  17
$$

NEZ041-046>049-061>064-073>077-083>087-090600-
SOUTH CENTRAL NEBRASKA

CITY           SKY/WX    TMP DP  RH WIND       PRES   REMARKS
GRAND ISLAND   CLEAR     19  12  74 W8        30.16F WCI   9
HASTINGS       CLEAR     23  13  65 W8        30.15F WCI  14
$$

NEZ011>018-030>034-042>045-090600-
NORTHEAST NEBRASKA

CITY           SKY/WX    TMP DP  RH WIND       PRES   REMARKS
NORFOLK        PTCLDY    27  17  66 N18       30.11R WCI  14
BLAIR          CLEAR     26  16  64 NW18G29   30.07F WCI  13
COLUMBUS *     CLEAR     28  12  50 NW16      30.12S WCI  17
FREMONT        CLOUDY    27  15  62 NW18      30.11S WCI  13
TEKAMAH        CLEAR     26  14  60 N18       30.11R WCI  13
$$

NEZ050>053-065>068-078-088>093-090600-
SOUTHEAST NEBRASKA

CITY           SKY/WX    TMP DP  RH WIND       PRES   REMARKS
LINCOLN        CLOUDY    31  21  66 NW13      30.12S WCI  21
OMAHA EPPLEY   PTCLDY    25  17  72 NW15      30.09S WCI  13
BEATRICE       CLEAR     31  22  70 NW18      30.12S WCI  19
FALLS CITY     PTCLDY    30  20  66 NW16G23   30.08S WCI  19
NEBRASKA CITY  CLOUDY    30  18  60 N21G26    30.08S WCI  17
$$

NEZ044-045-051>053-067-090600-
OMAHA AREA

CITY           SKY/WX    TMP DP  RH WIND       PRES   REMARKS
OMAHA EPPLEY   PTCLDY    25  17  72 NW15      30.09S WCI  13
BLAIR          CLEAR     26  16  64 NW18G29   30.07F WCI  13
FREMONT        CLOUDY    27  15  62 NW18      30.11S WCI  13
OFFUTT AFB     PTCLDY    27  17  65 NW17G23   30.08S WCI  14
WAHOO          CLOUDY    27  20  75 N12       30.11S WCI  16
$$



USA.gov is the U.S. government's official web portal to all federal, state and local government web resources and services.